Observations
| Time | Sensor | AQI | SAQ | Temp °C | Hum % | Pres Pa | CO μg/m³ | H₂S μg/m³ | NO μg/m³ | NO₂ μg/m³ | O₃ μg/m³ | SO₂ μg/m³ | CO₂e PPM | VOC PPM | PM1 μg/m³ | PM2.5 μg/m³ | PM4 μg/m³ | PM10 μg/m³ | TPS µm |
|---|---|---|---|---|---|---|---|---|---|---|---|---|---|---|---|---|---|---|---|
| Tuesday 11 August 2026 | |||||||||||||||||||
| 02:32 | Trim Patrick St | 1 | 12.2 | 76 | 38,460 | 0.3 | 5.62 | 3.97 | 33.57 | 10.49 | 0 | 3.71 | 6.9 | 7.59 | |||||
| 02:32 | Trim Market St | 2 | 13.8 | 68 | 56,814 | 0.3 | 0 | 3.15 | 14.23 | 41.65 | 0 | 1.43 | 3.65 | 6.89 | |||||
| 02:31 | Trim Patrick St | 1 | 12.2 | 76 | 38,460 | 0.3 | 4.92 | 3.97 | 31.29 | 9.93 | 0 | 4.57 | 7.61 | 8.38 | |||||
| 02:31 | Trim Market St | 2 | 13.8 | 68 | 56,833 | 0.31 | 0 | 3.32 | 15.83 | 39.36 | 0 | 2.14 | 4.15 | 6.25 | |||||
| 02:30 | Trim Patrick St | 1 | 12.2 | 76 | 38,460 | 0.3 | 5.07 | 3.97 | 30.37 | 12.54 | 0 | 3.71 | 7.62 | 8.38 | |||||
| 02:30 | Trim Market St | 2 | 13.8 | 68 | 56,856 | 0.3 | 0 | 3.27 | 17.62 | 39.91 | 0 | 2.14 | 3.17 | 4.97 | |||||
| 02:29 | Trim Patrick St | 1 | 12.2 | 76 | 38,460 | 0.3 | 5.05 | 3.98 | 33.1 | 9.64 | 0 | 2.86 | 6.91 | 7.6 | |||||
| 02:28 | Trim Patrick St | 1 | 12.2 | 76 | 38,460 | 0.3 | 5.05 | 3.96 | 31.27 | 11.5 | 0 | 3.71 | 7.63 | 8.39 | |||||
| 02:28 | Trim Market St | 2 | 13.9 | 67 | 56,902 | 0.3 | 0 | 2.96 | 16.03 | 38.63 | 0 | 0 | 2.69 | 4.32 | |||||
| 02:27 | Trim Patrick St | 1 | 12.2 | 76 | 38,460 | 0.29 | 5.15 | 3.97 | 33.08 | 9.81 | 0 | 3.71 | 7.64 | 8.4 | |||||
| 02:27 | Trim Market St | 2 | 13.9 | 67 | 56,924 | 0.29 | 0 | 3.03 | 15.72 | 39.91 | 0 | 2.14 | 3.67 | 5.6 | |||||
| 02:26 | Trim Patrick St | 1 | 12.2 | 76 | 38,460 | 0.3 | 5.59 | 3.97 | 32.63 | 11.11 | 0 | 4.57 | 8.35 | 9.18 | |||||
| 02:26 | Trim Market St | 2 | 13.9 | 67 | 56,949 | 0.29 | 0 | 2.84 | 16.39 | 39.9 | 0 | 2.14 | 3.18 | 5.6 | |||||
| 02:25 | Trim Patrick St | 1 | 12.3 | 76 | 38,460 | 0.29 | 5.08 | 3.95 | 32.09 | 10.75 | 0 | 2.86 | 6.93 | 7.63 | |||||
| 02:25 | Trim Market St | 2 | 13.9 | 67 | 56,975 | 0.3 | 0 | 2.78 | 16.01 | 36.07 | 0 | 1.43 | 3.18 | 5.6 | |||||
| 02:24 | Trim Patrick St | 1 | 12.3 | 76 | 38,460 | 0.29 | 5.28 | 3.95 | 30.73 | 11.84 | 0 | 2.86 | 5.51 | 6.07 | |||||
| 02:23 | Trim Patrick St | 1 | 12.3 | 75 | 38,460 | 0.3 | 6.06 | 3.94 | 34.79 | 11.13 | 0 | 3.71 | 7.66 | 8.42 | |||||
| 02:22 | Trim Patrick St | 1 | 12.3 | 75 | 38,460 | 0.29 | 5.44 | 3.95 | 32.53 | 10.39 | 0 | 2.86 | 6.95 | 7.64 | |||||
| 02:21 | Trim Market St | 2 | 13.9 | 67 | 57,031 | 0.29 | 0 | 3.32 | 15.93 | 40.53 | 0 | 2.14 | 3.69 | 5.6 | |||||
| 02:21 | Trim Patrick St | 1 | 12.3 | 75 | 38,460 | 0.28 | 5.44 | 3.94 | 31.61 | 11.52 | 0 | 2.86 | 6.95 | 7.65 | |||||